Temperature
11 11 11 12 12 12 12 13 13 13 15 16 16 16 17 17 17 17 17 17 17 16 16 16 16 16 16 16 16 16 16 16 16 16 16 16 16 16
10 10 11 11 11 12 12 12 13 13 14 15 16 16 16 16 16 16 16 16 16 16 16 16 16 16 16 16 16 16 16 16 16 16 16 16 16 16
10 10 10 10 11 11 11 12 12 13 13 14 15 15 16 16 16 16 16 16 16 16 16 16 16 16 16 16 16 16 16 16 16 16 16 16 16 16
9 9 10 10 10 11 11 11 12 12 13 13 14 15 15 15 16 16 16 16 16 16 16 16 16 16 16 16 16 16 16 16 16 16 16 16 16 16
9 9 9 10 10 10 10 11 11 12 12 13 14 14 14 15 15 15 15 15 15 16 16 16 16 16 16 16 16 16 16 16 16 16 16 16 16 16
9 9 9 9 9 10 10 10 11 11 12 12 13 13 14 14 14 14 14 14 15 15 15 15 15 16 16 16 16 16 16 16 16 16 16 16 16 16
8 8 9 9 9 9 9 10 10 11 11 11 12 13 13 13 13 14 13 13 13 13 14 14 15 15 15 15 15 15 15 15 15 15 15 15 15 15
8 8 8 8 9 9 9 9 10 10 11 11 11 12 12 13 13 13 13 13 12 12 13 13 13 14 14 15 15 15 15 15 15 15 15 15 15 15
7 8 8 8 8 9 9 9 9 10 10 10 11 12 12 13 13 13 13 13 13 12 12 12 12 13 13 14 14 14 14 14 15 15 15 15 15 15
7 7 7 8 8 8 9 9 9 10 10 10 11 11 12 12 13 13 13 13 12 12 12 12 12 12 12 12 13 13 13 14 14 14 14 14 14 14
7 7 7 7 8 8 8 8 9 9 10 10 10 11 11 12 12 12 12 12 12 11 11 12 12 11 11 12 12 12 13 13 13 13 14 14 14 14
7 7 7 7 7 8 8 8 8 9 9 10 10 10 11 11 12 12 13 12 12 11 11 11 12 11 11 11 11 12 12 12 12 13 13 13 13 13
6 7 7 7 7 7 8 8 8 9 9 9 10 10 10 11 11 12 12 13 12 12 12 11 12 11 11 11 11 11 12 12 12 12 13 13 13 13
6 6 7 7 7 7 7 8 8 8 9 9 9 10 10 10 11 11 12 12 12 13 13 13 12 12 12 12 11 11 11 11 12 12 12 12 12 12
6 6 7 7 7 7 7 8 8 8 8 9 9 10 10 10 10 11 11 11 11 12 12 12 13 13 13 13 13 12 12 12 11 11 12 12 12 12
6 6 6 7 7 7 7 8 8 8 8 9 9 9 10 10 10 10 11 11 11 11 11 12 12 12 12 13 13 13 13 12 12 11 11 11 11 10
6 6 6 7 7 7 7 8 8 8 8 9 9 9 9 10 10 10 10 11 11 11 11 11 11 11 12 12 12 12 12 12 12 12 11 10 10 10
6 6 6 7 7 7 8 8 8 8 9 9 9 9 9 10 10 10 10 10 11 11 11 11 11 10 10 10 11 12 12 12 11 11 11 10 10 10
6 6 7 7 7 7 8 8 8 8 9 9 9 9 9 9 9 10 10 10 10 11 11 11 11 11 10 10 11 11 11 11 11 10 10 10 10 10
6 6 7 7 7 7 8 8 8 8 8 9 9 9 9 9 9 10 10 10 10 10 10 11 11 11 12 12 12 12 11 11 11 11 10 9 9 9
7 7 7 7 7 8 8 8 8 8 9 9 9 9 9 9 9 10 10 10 10 10 10 10 11 11 11 11 11 11 11 10 11 11 10 9 8 8
7 7 7 7 8 8 8 8 8 9 9 9 9 9 9 9 9 10 10 10 10 10 10 10 10 10 10 10 11 11 11 10 10 10 10 10 10 9
7 7 8 8 8 8 8 8 9 9 9 9 9 9 9 9 9 9 10 10 10 10 10 10 10 9 9 10 10 10 10 10 9 9 9 9 9 9
Wind_Speed
7 6 5 5 4 4 4 3 3 3 3 3 2 2 4 5 10 11 10 14 16 17 18 19 20 21 22 22 23 24 24 24 23 23 23 23 23 22
6 7 6 5 5 4 4 4 4 4 4 3 2 2 4 5 8 9 9 12 12 13 14 15 16 17 19 20 20 21 21 21 21 20 20 19 19 19
8 8 8 7 5 5 4 4 4 4 5 4 2 2 3 7 6 7 8 8 7 9 10 12 13 14 15 16 17 17 18 18 17 17 16 16 15 15
9 9 9 7 7 5 4 5 5 5 4 4 2 2 3 8 8 8 6 7 7 9 10 10 10 12 13 13 14 15 16 15 15 14 14 13 13 12
9 9 10 9 8 6 6 6 5 5 4 4 4 3 3 6 8 7 7 6 7 9 11 11 11 11 12 12 13 14 14 14 14 13 13 12 12 11
10 10 10 9 10 9 7 7 6 5 5 5 5 4 6 6 7 8 6 4 5 6 8 10 13 13 13 13 13 14 15 15 15 15 14 14 13 12
10 9 10 12 14 11 8 7 7 6 5 5 5 4 6 9 8 6 7 7 4 4 6 5 6 7 8 11 12 14 16 16 17 16 16 15 15 14
10 9 10 11 14 15 15 13 11 9 8 6 6 7 8 8 7 9 9 8 5 4 5 4 4 6 4 6 11 15 16 17 18 18 17 17 16 15
10 10 11 11 11 9 11 14 13 14 12 8 7 8 8 9 10 12 11 9 5 8 6 4 4 4 4 7 12 14 16 17 17 18 18 18 17 16
11 11 11 10 10 9 8 8 8 9 11 9 8 8 8 9 12 11 11 8 7 6 5 4 3 3 4 6 9 12 14 16 17 18 18 18 18 17
11 11 11 10 13 14 10 8 8 7 9 11 9 9 9 11 11 10 12 12 8 6 3 4 4 3 3 3 5 9 12 15 16 17 18 18 18 17
8 9 13 13 14 15 11 9 9 8 6 7 8 8 8 11 15 14 14 14 10 6 5 5 6 5 4 2 2 5 8 11 14 16 17 18 17 14
6 6 8 13 15 15 13 10 11 8 7 7 7 7 7 8 10 11 11 12 11 5 9 7 6 4 5 4 2 2 4 5 8 10 14 14 14 13
6 6 6 10 13 14 12 11 12 9 5 6 6 7 7 8 9 10 10 8 7 7 13 10 6 7 6 5 4 4 3 5 6 5 8 10 9 10
4 5 6 8 8 8 11 13 11 7 6 6 7 7 7 7 7 8 8 7 7 9 14 8 10 10 6 6 7 5 4 4 5 4 5 4 5 6
3 3 3 4 4 5 6 8 7 7 7 6 6 6 6 7 7 7 8 9 8 6 6 9 12 14 6 6 8 7 6 8 8 6 5 3 6 10
2 1 1 2 3 3 4 5 5 6 6 5 5 5 6 7 7 7 8 9 8 9 8 5 6 6 7 8 7 8 7 5 7 7 5 4 4 8
1 1 2 3 4 5 6 5 5 6 6 6 5 5 6 7 7 7 8 10 10 9 9 8 9 6 4 2 4 10 8 6 6 7 5 5 5 5
1 2 2 3 4 4 5 5 5 6 6 6 6 5 6 7 7 8 9 10 9 9 10 11 11 9 7 6 5 8 10 8 9 8 6 5 6 6
3 4 4 4 4 4 5 5 5 5 5 5 5 6 6 7 7 8 9 10 10 9 9 10 11 11 9 9 7 6 13 11 9 10 8 4 2 4
4 5 5 5 4 5 5 5 5 5 6 6 6 7 7 7 7 8 8 12 10 10 13 12 10 10 7 7 6 5 6 14 14 9 9 6 4 3
5 5 5 5 4 4 5 5 5 5 6 6 6 6 7 8 8 9 9 10 10 9 10 8 9 8 6 7 7 7 8 8 10 16 18 14 8 8
5 5 5 5 5 4 4 5 6 6 6 6 7 7 8 8 8 9 9 9 9 10 10 10 8 7 6 6 6 6 8 8 6 6 4 8 13 17
Wind_Direction
254 258 256 254 247 245 240 223 235 263 262 248 228 195 173 161 169 168 167 184 190 197 201 204 207 208 208 209 211 214 216 217 218 218 218 219 222 224
250 251 254 254 251 245 239 229 219 231 254 254 230 193 162 147 141 139 144 153 168 181 189 194 199 203 205 207 209 211 213 213 213 214 215 217 219 222
258 250 250 247 246 245 241 233 225 217 244 265 242 174 140 140 130 120 121 120 132 156 173 182 189 193 196 199 201 201 202 201 201 202 204 207 210 213
257 252 252 252 244 235 232 234 230 220 221 252 237 180 147 152 140 131 122 114 114 127 142 154 166 175 181 186 187 186 186 185 186 188 191 194 197 201
249 246 247 243 246 238 229 230 228 231 218 227 233 192 156 150 136 123 119 114 110 112 115 123 133 144 152 160 166 167 167 168 169 171 171 172 173 173
249 242 240 234 237 235 231 226 221 220 218 222 223 193 167 154 145 142 139 126 118 111 102 107 112 115 123 135 144 149 151 152 152 151 150 149 148 148
253 245 240 239 238 234 229 218 212 213 213 214 215 197 178 167 164 155 152 138 105 115 116 105 103 99 102 116 127 136 139 140 140 140 139 139 138 137
252 249 246 249 249 243 237 225 210 205 207 210 210 205 195 178 164 158 155 154 149 149 126 106 97 95 79 94 123 130 132 134 135 135 135 134 133 131
244 243 251 249 241 236 239 235 225 217 206 205 211 205 193 180 169 167 170 161 146 154 133 113 94 87 68 94 120 127 131 132 133 133 132 131 130 128
239 235 234 237 236 225 225 226 222 219 214 210 214 211 199 184 177 169 160 133 110 138 126 117 106 84 67 72 111 127 132 133 133 132 130 129 127 124
241 236 228 228 230 222 214 216 221 228 225 216 208 211 204 186 170 155 155 155 152 157 131 118 125 103 75 53 89 123 133 135 135 134 132 130 126 120
242 238 232 226 226 217 209 206 215 218 205 204 205 205 203 188 177 174 170 168 159 155 152 125 137 131 111 77 64 108 122 131 138 139 137 136 133 122
237 235 233 225 222 216 205 203 210 201 193 195 195 193 190 189 185 183 179 173 168 157 159 139 143 135 126 133 138 143 138 134 139 145 147 146 146 138
238 229 226 225 218 211 207 207 204 193 180 183 189 195 194 193 190 185 183 180 162 149 158 148 145 153 136 134 153 153 157 159 154 155 163 161 156 152
236 236 229 227 209 205 208 200 190 184 177 185 193 198 195 189 182 178 171 154 130 143 158 156 147 151 141 145 150 152 157 180 176 160 169 175 171 160
249 245 229 222 203 192 192 192 186 181 180 190 190 190 181 177 181 177 173 163 150 142 153 156 154 153 143 141 150 159 161 168 178 178 169 175 186 182
224 188 177 182 186 187 187 182 182 181 186 184 177 174 178 179 180 178 169 163 163 163 156 144 141 131 131 145 150 159 157 156 165 164 159 175 197 190
199 194 199 193 196 192 186 187 189 190 189 182 179 177 181 180 178 173 171 169 167 165 162 156 145 127 102 79 153 162 165 160 156 160 151 165 196 204
218 234 230 210 206 198 192 189 192 194 186 181 179 183 180 175 174 177 178 173 171 168 165 163 164 161 162 172 190 175 168 162 159 166 172 165 186 199
228 233 238 230 216 206 198 195 197 190 186 187 185 187 179 173 174 179 181 176 169 166 166 171 177 178 179 170 161 174 174 163 166 174 176 163 148 165
239 238 239 235 225 212 206 197 190 187 185 183 187 185 179 173 176 179 178 171 166 170 178 184 181 154 120 118 123 141 171 180 171 170 167 157 149 147
250 244 239 235 226 214 201 193 188 188 186 186 186 183 179 176 176 174 174 173 174 174 175 167 147 147 151 163 161 155 159 169 181 178 173 169 165 181
251 247 236 228 222 209 199 196 192 190 189 186 184 182 178 177 175 172 172 173 171 168 161 158 156 159 167 162 155 149 155 160 159 156 176 198 198 197
Height
1465 1465 1465 1464 1465 1465 1466 1467 1468 1467 1466 1467 1469 1472 1475 1479 1483 1486 1490 1494 1498 1501 1505 1508 1512 1516 1519 1523 1528 1532 1536 1540 1543 1547 1550 1553 1555 1558
1460 1459 1459 1460 1460 1460 1461 1462 1463 1464 1464 1464 1466 1468 1472 1475 1479 1482 1486 1490 1493 1496 1500 1503 1507 1511 1514 1518 1522 1527 1531 1534 1538 1541 1544 1547 1550 1552
1453 1453 1454 1455 1455 1455 1456 1457 1458 1460 1460 1461 1463 1465 1468 1471 1475 1479 1482 1486 1489 1492 1495 1498 1502 1506 1510 1513 1517 1522 1526 1529 1533 1536 1539 1542 1545 1547
1446 1447 1447 1449 1449 1450 1451 1451 1453 1454 1456 1457 1459 1461 1464 1468 1472 1475 1478 1481 1484 1487 1491 1494 1497 1501 1505 1509 1513 1517 1521 1525 1528 1531 1534 1537 1540 1542
1439 1440 1441 1442 1443 1444 1445 1446 1447 1449 1451 1453 1455 1458 1461 1464 1468 1471 1474 1477 1480 1483 1486 1490 1493 1497 1501 1505 1509 1513 1517 1520 1524 1527 1530 1532 1535 1537
1432 1433 1434 1435 1436 1438 1439 1441 1442 1444 1446 1448 1450 1453 1456 1460 1464 1467 1470 1473 1476 1479 1483 1486 1490 1494 1498 1502 1506 1509 1513 1516 1519 1523 1526 1528 1531 1533
1425 1425 1426 1428 1429 1431 1433 1435 1437 1438 1440 1442 1445 1448 1451 1454 1458 1463 1467 1470 1473 1477 1480 1483 1487 1491 1495 1499 1503 1506 1509 1513 1516 1519 1522 1525 1527 1529
1417 1417 1419 1420 1422 1424 1426 1428 1430 1432 1435 1437 1440 1442 1446 1449 1454 1458 1463 1466 1470 1475 1478 1481 1485 1489 1492 1496 1500 1504 1507 1510 1513 1516 1519 1522 1524 1526
1408 1409 1410 1412 1414 1417 1419 1421 1423 1426 1429 1432 1434 1437 1440 1444 1449 1454 1459 1462 1466 1471 1476 1479 1483 1487 1491 1494 1498 1501 1505 1508 1511 1514 1517 1519 1522 1524
1400 1400 1402 1404 1407 1410 1412 1414 1417 1419 1422 1426 1428 1432 1436 1440 1445 1449 1454 1460 1466 1470 1474 1476 1480 1485 1489 1492 1496 1500 1503 1506 1509 1512 1515 1517 1520 1522
1391 1392 1394 1396 1399 1403 1405 1407 1410 1413 1416 1420 1423 1426 1430 1435 1439 1445 1450 1456 1461 1465 1470 1473 1477 1482 1486 1490 1494 1498 1501 1504 1507 1510 1513 1516 1518 1520
1384 1385 1387 1389 1392 1395 1398 1401 1404 1407 1411 1414 1417 1420 1424 1428 1433 1439 1444 1450 1455 1460 1465 1470 1474 1479 1484 1488 1492 1496 1499 1502 1505 1508 1511 1514 1517 1519
1378 1379 1380 1383 1386 1388 1392 1395 1398 1403 1406 1409 1412 1415 1418 1422 1427 1433 1439 1444 1449 1454 1459 1465 1470 1475 1479 1484 1489 1493 1497 1500 1503 1506 1509 1512 1515 1517
1373 1374 1375 1377 1380 1382 1386 1390 1394 1398 1401 1404 1407 1409 1413 1417 1421 1428 1434 1440 1446 1451 1456 1461 1465 1471 1475 1480 1485 1490 1494 1498 1502 1505 1507 1510 1512 1514
1369 1370 1371 1373 1375 1378 1381 1385 1389 1393 1396 1399 1402 1406 1409 1413 1418 1423 1430 1436 1442 1448 1454 1459 1464 1469 1474 1478 1482 1486 1490 1494 1498 1502 1505 1508 1511 1513
1367 1367 1368 1369 1371 1374 1377 1381 1385 1388 1392 1396 1399 1403 1407 1410 1414 1418 1424 1430 1437 1444 1450 1457 1462 1467 1472 1476 1480 1483 1487 1491 1494 1498 1502 1506 1509 1511
1365 1366 1366 1367 1368 1371 1374 1378 1382 1386 1390 1393 1396 1400 1403 1406 1410 1415 1420 1426 1432 1438 1445 1452 1458 1464 1470 1474 1478 1481 1485 1489 1492 1496 1499 1503 1506 1509
1364 1364 1365 1365 1367 1369 1372 1375 1379 1382 1386 1390 1393 1396 1399 1403 1407 1411 1416 1421 1427 1434 1440 1446 1453 1459 1465 1470 1475 1478 1482 1486 1490 1494 1497 1501 1504 1507
1363 1363 1364 1365 1366 1367 1370 1373 1376 1380 1384 1387 1390 1393 1397 1400 1404 1408 1413 1418 1424 1430 1436 1442 1448 1453 1458 1463 1468 1474 1478 1482 1487 1491 1494 1498 1502 1506
1361 1362 1362 1363 1365 1366 1368 1371 1374 1377 1381 1384 1387 1390 1393 1397 1400 1405 1410 1414 1419 1425 1432 1438 1443 1448 1453 1458 1463 1469 1474 1479 1483 1487 1492 1497 1501 1505
1360 1360 1361 1362 1363 1365 1367 1369 1372 1375 1378 1381 1384 1387 1390 1394 1397 1402 1406 1411 1416 1421 1427 1433 1439 1447 1453 1458 1463 1466 1471 1477 1482 1485 1489 1494 1498 1501
1358 1358 1359 1360 1361 1362 1364 1367 1369 1372 1375 1378 1381 1384 1387 1391 1395 1399 1403 1408 1413 1418 1423 1430 1436 1442 1448 1453 1458 1463 1469 1474 1480 1485 1489 1492 1494 1497
1356 1356 1357 1358 1359 1361 1363 1365 1367 1370 1372 1375 1378 1381 1385 1388 1392 1396 1401 1405 1410 1415 1420 1426 1432 1438 1444 1450 1456 1461 1466 1471 1475 1480 1485 1490 1494 1498